Location: Anciles
(42.5833°N, 0.5167°E)
Time: 07:25:56
(UTC+00:00)

Envisat - Visible Passes

Search period start: 21 February 2020 00:00
Search period end: 02 March 2020 00:00
Orbit: 764 x 766 km, 98.1° (Epoch: 20 February)

Date Brightness Start Highest point End Pass type
(mag) Time Alt. Az. Time Alt. Az. Time Alt. Az.
21 Feb 4.3 06:11:38 10° NNE 06:16:32 47° E 06:21:24 10° S visible
21 Feb 6.3 19:08:18 10° SW 19:11:10 15° W 19:14:03 10° NW visible
22 Feb 5.8 05:35:39 10° NE 05:39:31 22° E 05:43:22 10° SE visible
22 Feb 5.0 18:29:31 10° SSW 18:34:03 33° W 18:38:38 10° NNW visible
24 Feb 4.8 06:00:29 10° NNE 06:05:11 37° E 06:09:52 10° SSE visible
24 Feb 6.0 18:56:11 10° SW 18:59:44 19° W 19:03:20 10° NW visible
25 Feb 6.2 05:24:49 10° NE 05:28:06 17° E 05:31:22 10° SE visible
25 Feb 4.5 18:17:55 10° SSW 18:22:41 41° W 18:27:30 10° NNW visible
26 Feb 6.6 19:24:38 10° W 19:25:33 10° W 19:26:28 10° WNW visible
27 Feb 5.3 05:49:23 10° NE 05:53:49 29° E 05:58:13 10° SSE visible
27 Feb 5.6 18:44:17 10° SSW 18:48:21 24° W 18:52:26 10° NW visible
28 Feb 6.4 05:14:15 10° ENE 05:16:40 13° E 05:19:05 10° ESE visible
28 Feb 4.1 18:06:25 10° S 18:11:21 52° W 18:16:20 10° NNW visible
29 Feb 6.3 19:11:34 10° WSW 19:14:05 14° W 19:16:38 10° WNW visible
01 Mar 5.7 05:38:23 10° NE 05:42:26 23° E 05:46:27 10° SE visible
01 Mar 5.2 18:32:32 10° SSW 18:36:57 30° W 18:41:25 10° NW visible
